Regional Weather Roundup
Issued by NWS

Home | Current Version | Previous Version | Graphics & Text | Print | Product List | Glossary On
Versions: 1 2 3 4 5 6 7 8 9 10 11 12 13 14 15 16 17 18 19 20 21 22 23 24 25 26 27 28 29 30 31 32 33 34 35 36 37 38 39 40 41 42 43 44 45 46 47 48 49 50
000
ASUS43 KLOT 221409
RWRIL

ILLINOIS REGIONAL WEATHER ROUNDUP
NATIONAL WEATHER SERVICE CHICAGO/ROMEOVILLE IL
900 AM CDT MON MAY 22 2017

NOTE: "FAIR" INDICATES FEW OR NO CLOUDS BELOW 12,000 FEET WITH NO
SIGNIFICANT WEATHER AND/OR OBSTRUCTIONS TO VISIBILITY.

* THESE STATIONS ARE NOT UNDER NWS QUALITY CONTROL. THEY ALSO MAY NOT
  REPORT WEATHER SUCH AS PRECIPITATION OR FOG.

ILZ001-002-007-009-015-016-024-221500-
NORTHWEST ILLINOIS

CITY           SKY/WX    TMP DP  RH WIND       PRES   REMARKS
MOLINE         MOSUNNY   61  47  59 SW14G21   30.00F
STERLING*      SUNNY     59  48  67 VRB6      30.02F
SAVANNA*       PTSUNNY   57  47  69 S9        30.00F
$$

ILZ003-004-008-010-011-017-018-221500-
NORTH CENTRAL ILLINOIS

CITY           SKY/WX    TMP DP  RH WIND       PRES   REMARKS
ROCKFORD       SUNNY     57  46  66 SW10      30.03F
FREEPORT*      SUNNY     55  47  73 S13       30.02S
ROCHELLE*      SUNNY     56  48  75 SW10      30.03F
DE KALB*       SUNNY     56  46  68 SW9       30.03F
PERU*          SUNNY     57  45  63 SW12      30.05F
$$

ILZ005-006-012>014-019>023-221500-
NORTHEAST ILLINOIS

CITY           SKY/WX    TMP DP  RH WIND       PRES   REMARKS
CHICAGO-OHARE  MOSUNNY   56  44  64 W10       30.03F
CHICAGO-MIDWAY MOSUNNY   58  44  60 SW15      30.04F
AURORA         SUNNY     58  47  66 SW12      30.04F
LANSING*       SUNNY     58  46  66 SW10      30.05F
WAUKEGAN       SUNNY     56  43  61 SW12G20   30.00S
DUPAGE AIRPORT SUNNY     56  47  71 SW10      30.03F
KANKAKEE*      SUNNY     61  45  56 W12       30.08S
WHEELING       SUNNY     56  45  66 SW12G17   30.03F
MORRIS*        SUNNY     59  44  57 W10       30.04F
ROMEOVILLE*    SUNNY     57  48  73 W13       30.05F
NORTHERLY ISL    N/A     57  42  57 W6          N/A
$$

LMZ740>746-221500-
SOUTHERN LAKE MICHIGAN

STATION/POSITION SKY/WX   TEMP    WIND        PRES    VSBY  WAVE
                          AIR SEA DIR/SP/G                  HT/PER
                          (F)     (DEG/KT/KT) (MB)    (MI)  (FT/S)
SOUTHERN BUOY              47 44  240/ 14/ 16 1016.3          2/ 4
WILMETTE HARBOR            53 53                N/A           1/ 2
HARRISON CRIB              55     250/  9/ 11   N/A
BURNHAM HARBOR             57     230/  6/ 13   N/A
CALUMET HARBOR             55     220/  7/ 11 1016.8F
BURNS HARBOR               55     250/ 12/ 15 1017.9F
MICHIGAN CITY              53     230/ 15/ 17   N/A
MICHIGAN CITY 6N           52 52  240/ 10/ 12   N/A           2/ 3
ST. JOSEPH                 52 54  250/ 14/ 19 1018.0          4/ 4
$$

ILZ025>027-034>036-040-047-049-050-058-095>099-221500-
WEST-CENTRAL ILLINOIS

CITY           SKY/WX    TMP DP  RH WIND       PRES   REMARKS
QUINCY         SUNNY     63  48  58 SW12      30.07F
GALESBURG*     SUNNY     60  50  69 S14G22    30.03F
MACOMB*        SUNNY     61  50  68 SW15G21   30.07F
JACKSONVILLE*  SUNNY     63  50  63 SW8       30.09F
PITTSFIELD*    SUNNY     65  50  58 S8        30.10S
$$

ILZ028>032-037-038-041>044-048-051>054-059>061-221500-
CENTRAL ILLINOIS

CITY           SKY/WX    TMP DP  RH WIND       PRES   REMARKS
PONTIAC        SUNNY     61  47  60 SW12      30.08R
BLOOMINGTON    SUNNY     60  48  64 SW13      30.09S
DECATUR        CLOUDY    60  50  69 SW10      30.11S
PEORIA         SUNNY     60  49  66 SW12      30.06F
LACON*         SUNNY     60  49  69 SW6       30.05R
LINCOLN*       SUNNY     63  53  69 S6        30.08F
SPRINGFIELD    SUNNY     64  50  60 SW6       30.10S
TAYLORVILLE    CLOUDY    59  52  77 S8        30.12S
$$

ILZ033-039-045-046-055>057-062-063-221500-
EAST-CENTRAL ILLINOIS

CITY           SKY/WX    TMP DP  RH WIND       PRES   REMARKS
CHAMPAIGN      CLOUDY    60  45  57 SW9       30.11F
RANTOUL*       SUNNY     62  49  61 SW7       30.11S
MATTOON        CLOUDY    58  53  84 S9        30.13S
PARIS*         CLOUDY    59  49  70 SW9       30.15R
$$

ILZ079-100>102-221500-
SOUTHWEST ILLINOIS

CITY           SKY/WX    TMP DP  RH WIND       PRES   REMARKS
ALTON          PTSUNNY   61  52  72 S8        30.13F
BELLEVILLE     CLOUDY    60  53  77 S5        30.14F
CAHOKIA*       CLOUDY    63  50  62 VRB5      30.13F
SPARTA*        MOSUNNY   60  52  75 CALM      30.15S
$$

ILZ064>066-069>071-074>076-080>082-084>086-088>090-092>094-221500-
SOUTH-CENTRAL ILLINOIS

CITY           SKY/WX    TMP DP  RH WIND       PRES   REMARKS
CARBONDALE     PTSUNNY   63  55  75 SE6       30.15F
CAIRO*         CLOUDY    64  51  63 E6        30.16R
EFFINGHAM*     CLOUDY    59  56  89 S5        30.16F
MARION         PTSUNNY   63  55  77 SE6       30.16F
MT. VERNON       N/A     64  52  64 CALM      30.15F
CENTRALIA*     CLOUDY    61  54  77 CALM      30.14S
SALEM*         CLOUDY    61  52  73 CALM      30.14F
METROPOLIS*    PTSUNNY   62  53  70 CALM      30.17S
$$

ILZ067-068-072-073-078-083-087-091-221500-
SOUTHEAST ILLINOIS

CITY           SKY/WX    TMP DP  RH WIND       PRES   REMARKS
LAWRENCEVILLE  CLOUDY    62  50  64 VRB5      30.16F
FLORA*         MOSUNNY   62  52  70 CALM      30.15F
FAIRFIELD*     MOSUNNY   64  51  63 CALM      30.14F
HARRISBURG*    CLOUDY    63  53  71 CALM      30.15F
ROBINSON*      PTSUNNY   61  52  72 SW5       30.17F
CARMI*         CLOUDY    64  49  60 CALM      30.15F
$$

ABBREVIATIONS USED IN REMARKS
   TC - TEMPERATURE IN CELSIUS
  WCI - WIND CHILL INDEX
   HX - HEAT INDEX
  VSB - VISIBILITY
$$




USA.gov is the U.S. government's official web portal to all federal, state and local government web resources and services.